Aeroporto :
LOGIN :

Iscrizione | Disclaimer

   EN    FR    IT 

 










Sommario :    VFR   VFR Marginale   IFR   IFR Intensivo   IFR Molto Intensivo
Visibilità : 
Base nubi : 
>= 8 km
>= 3000ft
5 / 8 km
1000 / 3000 ft
1500m / 5 km
500 / 1000 ft
800 / 1500m
200 / 500 ft
< 800m
< 200 ft
Simboli :   Temporali  Nebbia  Neve Forte  Precipitazioni Forti  Vento > 20 kt
SIGMETs :   Varie  Temporali  Ghiacco  Turbolenza  Onda orograficha  Ceneri Vulcaniche







- Altitudine del aeroporto : 640 ft
- Codice IATA : AOC


EDAC - Altenburg-Nobitz

ULTIMO METAR :
  • 211050Z 30006KT 270V340 9999 SCT047 25/15 Q1019

METARs OBSOLETI :
  • 211020Z 29012KT 260V320 9999 SCT041 25/14 Q1019
  • 210950Z 29006KT 240V320 9999 SCT033 BKN056 24/15 Q1019
  • 210920Z 29006KT 230V330 9999 SCT032 24/15 Q1019
  • 210850Z 29007KT 250V330 9999 FEW027 22/15 Q1019
  • 210820Z 29008KT 9999 SCT028 22/16 Q1019

TAF TAF EDAC
Valido dal 21 a 09 ore il 21 a 18 ore UTC


210830Z 2109/2118 29010KT 9999 SCT035
PROB30
TEMPO 2111/2116 29015G25KT
Nessun NOTAM noto per questo aeroporto.



MetMap, La meteo Aeronautica in un colpo d'occhio ! - Copyright ORBIFLY Dicembre 2007 - Disclaimer

ORBIFLY MET'MAP TEAM :

Programmazione e sviluppo : Alexandra Zaïnal
Concezione e sviluppo : Baudouin d'Aumeries
Co-Programmazione e sviluppo : Marc-Olivier Méhu
Supporto tecnico e logistico : Manuel Goepfert
Aiuto per la traduzione : Arnaldo La Scala

Contatto : metmap@orbifly.com




FONTI E CREDITI :

   NOAA